Location: Medlow Airstrip Trail, Medlow Bath NSW 2780, Australia
(33.6682°S, 150.3233°E)
Time: 04:10:24
(UTC+11:00)

Hubble Space Telescope - Visible Passes

Search period start: 23 October 2019 00:00
Search period end: 02 November 2019 00:00
Orbit: 536 x 540 km, 28.5° (Epoch: 21 October)

Date Brightness Start Highest point End Pass type
(mag) Time Alt. Az. Time Alt. Az. Time Alt. Az.
23 Oct 2.4 20:49:37 10° NW 20:52:00 21° N 20:52:00 21° N visible
24 Oct 1.9 20:38:47 10° NW 20:42:18 27° NNE 20:42:30 27° NNE visible
25 Oct 1.8 20:28:00 10° NW 20:31:40 30° NNE 20:32:52 26° NE visible
26 Oct 1.6 20:17:16 10° NW 20:21:03 33° N 20:23:07 21° ENE visible
26 Oct 3.5 21:58:01 10° WNW 21:58:29 13° WNW 21:58:29 13° WNW visible
27 Oct 1.6 20:06:34 10° WNW 20:10:25 36° N 20:13:18 16° ENE visible
27 Oct 3.1 21:47:26 10° WNW 21:48:39 18° WNW 21:48:39 18° WNW visible
28 Oct 1.5 19:55:54 10° WNW 19:59:48 39° N 20:03:24 12° ENE visible
28 Oct 2.7 21:36:53 10° WNW 21:38:45 22° WNW 21:38:45 22° WNW visible
29 Oct 1.5 19:45:16 10° WNW 19:49:11 40° N 19:53:07 10° ENE visible
29 Oct 2.3 21:26:20 10° WNW 21:28:47 26° NW 21:28:47 26° NW visible
30 Oct 2.1 21:15:49 10° WNW 21:18:48 27° NNW 21:18:48 27° NNW visible
31 Oct 2.2 21:05:20 10° WNW 21:08:48 25° NNW 21:08:48 25° NNW visible
01 Nov 2.3 20:54:55 10° WNW 20:58:09 22° NNW 20:58:47 21° N visible
